• In Slovakia
  • List of Countries
  • For 7 days
  • Water Temperature
  • Satellite Maps
  • Weather Map
  • Weather Widgets
  • user-avatar
    Login

    Hourly Weather Banfora

    Today, 22 October, Monday

    Time Temperature Precipitation Wind Pressure Humidity
    00:00 +29°C° 0 mm 1 mps 732 mmHg 60%
    01:00 +28°C° 0 mm 1 mps 732 mmHg 63%
    02:00 +28°C° 0 mm 1 mps 732 mmHg 66%
    03:00 +27°C° 0 mm 1 mps 731 mmHg 69%
    04:00 +27°C° 0 mm 1 mps 732 mmHg 71%
    05:00 +26°C° 0 mm 1 mps 732 mmHg 74%
    06:00 +26°C° 0 mm 1 mps 732 mmHg 76%
    07:00 +28°C° 0 mm 1 mps 732 mmHg 70%
    08:00 +30°C° 0 mm 2 mps 733 mmHg 64%
    09:00 +32°C° 0 mm 2 mps 733 mmHg 59%
    10:00 +34°C° 0 mm 1 mps 733 mmHg 50%
    11:00 +37°C° 0 mm 1 mps 733 mmHg 41%
    12:00 +37°C° 0 mm 0 mps 733 mmHg 32%
    13:00 +40°C° 0 mm 1 mps 732 mmHg 29%
    14:00 +40°C° 0 mm 2 mps 731 mmHg 27%
    15:00 +40°C° 0 mm 3 mps 730 mmHg 24%
    16:00 +38°C° 0 mm 2 mps 731 mmHg 28%
    17:00 +35°C° 0 mm 1 mps 731 mmHg 32%
    18:00 +33°C° 0 mm 1 mps 731 mmHg 36%
    19:00 +32°C° 0 mm 1 mps 731 mmHg 37%
    20:00 +31°C° 0 mm 1 mps 732 mmHg 39%
    21:00 +30°C° 0 mm 1 mps 733 mmHg 40%
    22:00 +30°C° 0 mm 1 mps 733 mmHg 42%
    23:00 +29°C° 0 mm 1 mps 733 mmHg 44%

    Tomorrow, 23 October, Tuesday

    Time Temperature Precipitation Wind Pressure Humidity
    00:00 +29°C° 0 mm 1 mps 733 mmHg 46%
    01:00 +28°C° 0 mm 1 mps 733 mmHg 49%
    02:00 +28°C° 0 mm 1 mps 732 mmHg 52%
    03:00 +27°C° 0 mm 2 mps 732 mmHg 55%
    04:00 +27°C° 0 mm 1 mps 732 mmHg 60%
    05:00 +26°C° 0 mm 1 mps 732 mmHg 65%
    06:00 +26°C° 0 mm 1 mps 733 mmHg 70%
    07:00 +27°C° 0 mm 2 mps 733 mmHg 67%
    08:00 +29°C° 0 mm 2 mps 733 mmHg 64%
    09:00 +31°C° 0 mm 2 mps 734 mmHg 61%
    10:00 +34°C° 0 mm 2 mps 734 mmHg 52%
    11:00 +36°C° 0 mm 2 mps 733 mmHg 44%
    12:00 +39°C° 0 mm 1 mps 733 mmHg 36%
    13:00 +39°C° 0 mm 2 mps 732 mmHg 31%
    14:00 +40°C° 0 mm 2 mps 732 mmHg 26%
    15:00 +40°C° 0 mm 2 mps 731 mmHg 22%
    16:00 +38°C° 0 mm 2 mps 731 mmHg 25%
    17:00 +35°C° 0 mm 1 mps 731 mmHg 29%
    18:00 +33°C° 0 mm 1 mps 731 mmHg 33%
    19:00 +32°C° 0 mm 1 mps 731 mmHg 35%
    20:00 +31°C° 0 mm 1 mps 732 mmHg 37%
    21:00 +30°C° 0 mm 1 mps 732 mmHg 39%
    22:00 +30°C° 0 mm 1 mps 732 mmHg 42%
    23:00 +29°C° 0 mm 1 mps 732 mmHg 45%

    Day after tomorrow, 24 October, Wednesday

    Time Temperature Precipitation Wind Pressure Humidity
    00:00 +29°C° 0 mm 1 mps 732 mmHg 48%
    01:00 +28°C° 0 mm 1 mps 732 mmHg 51%
    02:00 +28°C° 0 mm 1 mps 731 mmHg 54%
    03:00 +27°C° 0 mm 1 mps 731 mmHg 58%
    04:00 +27°C° 0 mm 1 mps 731 mmHg 61%
    05:00 +26°C° 0 mm 1 mps 731 mmHg 63%
    06:00 +26°C° 0 mm 1 mps 731 mmHg 66%
    07:00 +28°C° 0 mm 2 mps 732 mmHg 63%
    08:00 +30°C° 0 mm 2 mps 733 mmHg 60%
    09:00 +31°C° 0 mm 2 mps 733 mmHg 57%
    10:00 +34°C° 0 mm 2 mps 733 mmHg 50%
    11:00 +37°C° 0 mm 2 mps 732 mmHg 43%
    12:00 +39°C° 0 mm 2 mps 732 mmHg 36%
    13:00 +39°C° 0 mm 2 mps 731 mmHg 33%
    14:00 +40°C° 0 mm 1 mps 731 mmHg 30%
    15:00 +41°C° 0 mm 1 mps 730 mmHg 26%
    16:00 +39°C° 0 mm 1 mps 730 mmHg 30%
    17:00 +36°C° 0 mm 1 mps 730 mmHg 34%
    18:00 +34°C° 0 mm 1 mps 730 mmHg 37%
    19:00 +33°C° 0 mm 1 mps 730 mmHg 40%
    20:00 +32°C° 0 mm 1 mps 731 mmHg 43%
    21:00 +31°C° 0 mm 1 mps 732 mmHg 46%
    22:00 +31°C° 0 mm 2 mps 732 mmHg 51%
    23:00 +30°C° 0 mm 2 mps 732 mmHg 57%

    25 October, Thursday

    Time Temperature Precipitation Wind Pressure Humidity
    00:00 +29°C° 0 mm 2 mps 732 mmHg 63%
    01:00 +29°C° 0 mm 2 mps 731 mmHg 68%
    02:00 +28°C° 0 mm 2 mps 731 mmHg 73%
    03:00 +28°C° 0 mm 2 mps 731 mmHg 78%
    04:00 +27°C° 0 mm 2 mps 731 mmHg 80%
    05:00 +27°C° 0 mm 2 mps 731 mmHg 82%
    06:00 +27°C° 0 mm 2 mps 731 mmHg 85%
    07:00 +28°C° 0 mm 3 mps 732 mmHg 79%
    08:00 +29°C° 0 mm 3 mps 732 mmHg 74%
    09:00 +32°C° 0 mm 4 mps 733 mmHg 68%
    10:00 +34°C° 0 mm 3 mps 733 mmHg 61%
    11:00 +36°C° 0 mm 3 mps 732 mmHg 53%
    12:00 +37°C° 0 mm 3 mps 732 mmHg 46%
    13:00 +38°C° 0 mm 2 mps 731 mmHg 42%
    14:00 +39°C° 0 mm 2 mps 730 mmHg 39%
    15:00 +39°C° 0 mm 2 mps 730 mmHg 35%
    16:00 +37°C° 0 mm 1 mps 730 mmHg 38%
    17:00 +35°C° 0 mm 1 mps 730 mmHg 41%
    18:00 +34°C° 0 mm 1 mps 730 mmHg 45%
    19:00 +33°C° 0 mm 1 mps 731 mmHg 46%
    20:00 +33°C° 0 mm 1 mps 731 mmHg 47%
    21:00 +33°C° 0 mm 1 mps 732 mmHg 49%
    22:00 +32°C° 0.1 mm 1 mps 732 mmHg 53%
    23:00 +31°C° 0.1 mm 1 mps 732 mmHg 57%

    26 October, Friday

    Time Temperature Precipitation Wind Pressure Humidity
    00:00 +30°C° 0.1 mm 2 mps 732 mmHg 62%
    01:00 +29°C° 0 mm 2 mps 731 mmHg 65%
    02:00 +29°C° 0 mm 2 mps 731 mmHg 68%
    03:00 +28°C° 0 mm 2 mps 731 mmHg 71%
    04:00 +28°C° 0.1 mm 2 mps 731 mmHg 74%
    05:00 +27°C° 0.1 mm 1 mps 731 mmHg 76%
    06:00 +27°C° 0.1 mm 1 mps 732 mmHg 79%
    07:00 +29°C° 0 mm 2 mps 732 mmHg 72%
    08:00 +31°C° 0 mm 2 mps 733 mmHg 65%
    09:00 +32°C° 0 mm 2 mps 733 mmHg 59%
    10:00 +35°C° 0 mm 2 mps 733 mmHg 53%
    11:00 +37°C° 0 mm 2 mps 732 mmHg 47%
    12:00 +38°C° 0 mm 2 mps 732 mmHg 41%
    13:00 +39°C° 0 mm 2 mps 731 mmHg 40%
    14:00 +39°C° 0 mm 2 mps 730 mmHg 38%
    15:00 +39°C° 0 mm 2 mps 730 mmHg 37%
    16:00 +36°C° 0 mm 1 mps 730 mmHg 40%
    17:00 +35°C° 0 mm 1 mps 730 mmHg 43%
    18:00 +34°C° 0 mm 1 mps 731 mmHg 46%
    19:00 +33°C° 0.1 mm 1 mps 731 mmHg 49%
    20:00 +32°C° 0.1 mm 1 mps 732 mmHg 51%
    21:00 +31°C° 0.1 mm 1 mps 732 mmHg 54%
    22:00 +31°C° 0.4 mm 1 mps 732 mmHg 59%
    23:00 +30°C° 0.4 mm 1 mps 732 mmHg 65%

    27 October, Saturday

    Time Temperature Precipitation Wind Pressure Humidity
    00:00 +29°C° 0.4 mm 1 mps 732 mmHg 70%
    01:00 +29°C° 0 mm 1 mps 731 mmHg 72%
    02:00 +28°C° 0 mm 1 mps 731 mmHg 73%
    03:00 +28°C° 0 mm 2 mps 731 mmHg 74%
    04:00 +28°C° 0 mm 2 mps 731 mmHg 76%
    05:00 +28°C° 0 mm 2 mps 732 mmHg 78%
    06:00 +27°C° 0 mm 2 mps 732 mmHg 79%
    07:00 +29°C° 0 mm 2 mps 733 mmHg 73%
    08:00 +30°C° 0 mm 2 mps 733 mmHg 67%
    09:00 +32°C° 0 mm 2 mps 734 mmHg 62%
    10:00 +35°C° 0 mm 2 mps 733 mmHg 55%
    11:00 +36°C° 0 mm 2 mps 733 mmHg 49%
    12:00 +38°C° 0 mm 2 mps 732 mmHg 42%
    13:00 +39°C° 0 mm 1 mps 732 mmHg 40%
    14:00 +39°C° 0 mm 1 mps 731 mmHg 37%
    15:00 +40°C° 0 mm 1 mps 730 mmHg 35%
    16:00 +37°C° 0 mm 1 mps 730 mmHg 38%
    17:00 +36°C° 0 mm 1 mps 730 mmHg 42%
    18:00 +32°C° 0 mm 0 mps 730 mmHg 45%
    19:00 +33°C° 0 mm 1 mps 731 mmHg 48%
    20:00 +32°C° 0 mm 1 mps 732 mmHg 51%
    21:00 +31°C° 0 mm 1 mps 732 mmHg 54%
    22:00 +30°C° 0.6 mm 1 mps 732 mmHg 62%
    23:00 +29°C° 0.6 mm 1 mps 732 mmHg 69%

    28 October, Sunday

    Time Temperature Precipitation Wind Pressure Humidity
    00:00 +28°C° 0.6 mm 1 mps 732 mmHg 77%
    01:00 +28°C° 0.2 mm 2 mps 732 mmHg 79%
    02:00 +27°C° 0.2 mm 2 mps 732 mmHg 81%
    03:00 +27°C° 0.2 mm 2 mps 732 mmHg 84%
    04:00 +27°C° 0 mm 2 mps 732 mmHg 85%
    05:00 +27°C° 0 mm 2 mps 732 mmHg 86%
    06:00 +27°C° 0 mm 2 mps 733 mmHg 87%
    07:00 +28°C° 0.3 mm 2 mps 733 mmHg 82%
    08:00 +29°C° 0.3 mm 2 mps 734 mmHg 76%
    09:00 +30°C° 0.3 mm 2 mps 734 mmHg 70%
    10:00 +32°C° 0.1 mm 2 mps 734 mmHg 62%
    11:00 +35°C° 0.1 mm 2 mps 733 mmHg 53%
    12:00 +37°C° 0.1 mm 2 mps 733 mmHg 45%
    13:00 +37°C° 0 mm 1 mps 732 mmHg 42%
    14:00 +36°C° 0 mm 0 mps 731 mmHg 40%
    15:00 +37°C° 0 mm 0 mps 731 mmHg 37%
    16:00 +35°C° 0 mm 0 mps 731 mmHg 40%
    17:00 +33°C° 0 mm 0 mps 731 mmHg 44%
    18:00 +32°C° 0 mm 0 mps 731 mmHg 48%
    19:00 +31°C° 0 mm 0 mps 731 mmHg 49%
    20:00 +30°C° 0 mm 0 mps 732 mmHg 51%
    21:00 +30°C° 0 mm 0 mps 732 mmHg 53%
    22:00 +31°C° 0.3 mm 1 mps 732 mmHg 57%
    23:00 +30°C° 0.3 mm 1 mps 732 mmHg 61%
    Show more